This is the latest recevied weather packets stored in our database for station/object K6POO-1. If no packets are shown the sender has not sent any weather packets the latest 10 day(s).
| Time | Temp. | Humidity | Pressure | Rain* | Wind** | Luminosity | Snow |
|---|---|---|---|---|---|---|---|
| 1788574716 | 17.22° C | 72% | 1014.2 hPa | 0 mm | - | 15 W/m² | - |
| 1788574412 | 17.22° C | 72% | 1014.1 hPa | 0 mm | - | 18 W/m² | - |
| 1788574106 | 17.22° C | 70% | 1014.1 hPa | 0 mm | - | 22 W/m² | - |
| 1788573801 | 17.22° C | 70% | 1014.2 hPa | 0 mm | - | 25 W/m² | - |
| 1788573500 | 17.22° C | 70% | 1014.2 hPa | 0 mm | - | 28 W/m² | - |
| 1788573194 | 17.22° C | 70% | 1014.3 hPa | 0 mm | - | 31 W/m² | - |
| 1788572893 | 17.22° C | 71% | 1014.2 hPa | 0 mm | - | 33 W/m² | - |
| 1788572589 | 17.78° C | 71% | 1014.4 hPa | 0 mm | - | 36 W/m² | - |
| 1788572284 | 17.78° C | 71% | 1014.3 hPa | 0 mm | - | 38 W/m² | - |
| 1788571981 | 17.78° C | 69% | 1014.5 hPa | 0 mm | - | 40 W/m² | - |
| 1788571675 | 18.89° C | 66% | 1014.3 hPa | 0 mm | - | 43 W/m² | - |
| 1788571371 | 18.89° C | 65% | 1014.3 hPa | 0 mm | - | 50 W/m² | - |
| 1788571068 | 18.89° C | 63% | 1014.3 hPa | 0 mm | - | 54 W/m² | - |
| 1788570763 | 18.89° C | 64% | 1014 hPa | 0 mm | - | 67 W/m² | - |
| 1788570458 | 18.89° C | 65% | 1014.1 hPa | 0 mm | - | 77 W/m² | - |
| 1788570153 | 18.89° C | 63% | 1014.3 hPa | 0 mm | - | 89 W/m² | - |
| 1788569850 | 19.44° C | 64% | 1014.4 hPa | 0 mm | - | 102 W/m² | - |
| 1788569545 | 19.44° C | 65% | 1014.1 hPa | 0 mm | - | 114 W/m² | - |
| 1788569244 | 19.44° C | 62% | 1014.3 hPa | 0 mm | - | 130 W/m² | - |
| 1788568940 | 20° C | 63% | 1014.1 hPa | 0 mm | - | 146 W/m² | - |
| 1788568640 | 19.44° C | 63% | 1014.2 hPa | 0 mm | - | 162 W/m² | - |
| 1788568336 | 19.44° C | 64% | 1014.2 hPa | 0 mm | - | 176 W/m² | - |
| 1788568031 | 19.44° C | 60% | 1014.2 hPa | 0 mm | - | 194 W/m² | - |
| 1788567731 | 20° C | 61% | 1014.2 hPa | 0 mm | - | 213 W/m² | - |
| 1788567426 | 20° C | 60% | 1013.9 hPa | 0 mm | - | 233 W/m² | - |
* Rain latest hour (hover to see other rain measurements)
** Current wind speed in m/s (hover to see current wind gust speed)